sat.trackr.live / text

‹ back to catalog

S-NET D

NORAD 43186 · 2018-014G

PAYLOAD ACTIVE UNKNOWN

§ Identity

Operator
Country
GER
Launch date
2018-02-01
Launch site
VOSTO
Launch vehicle
Mass (kg)
RCS (m²)

External: N2YO · Heavens-Above · Gunter

§ Orbital elements

Epoch: 2026-09-19T23:32:27.715776Z

Period
94.90 min
Inclination
97.5248°
Eccentricity
0.0009539
Mean motion
15.17414145 rev/d
Perigee alt
507.1 km
Apogee alt
520.2 km
Semi-major
6,891.8 km
B*
1.4724e-4
RAAN
167.1722°
Arg perigee
57.0805°
Mean anomaly
303.1345°
Rev number
47,313

§ Raw data

S-NET D1 43186U 18014G   26262.98087634  .00002878  00000+0  14724-3 0  99942 43186  97.5248 167.1722 0009539  57.0805 303.1345 15.17414145473136

JSON: /api/v1/satellites/43186 · /tle

For live sub-satellite position, see the globe view (requires WebGL).

§ Visibility from observer

Set your observer location to see the next 7 days of passes ≥ 10°. The values pass through the URL so the page stays shareable.

No JS? Fill the form by hand. The geolocation button needs JavaScript.

§ Radio — SatNOGS DB

ModeDescriptionDownlinkUplink
AFSK TUBiX10 AFSK 1k2 TLM 435.950 MHz
FM S-Band Downlink 2.263 GHz

2 transmitters · refreshed weekly from db.satnogs.org